Regional Weather Roundup
Issued by NWS

Home | Current Version | Previous Version | Text Only | Print | Product List | Glossary On
Versions: 1 2 3 4 5 6 7 8 9 10 11 12 13 14 15 16 17 18 19 20 21 22 23 24 25 26 27 28 29 30 31 32 33 34 35 36 37 38 39 40 41 42 43 44 45 46 47 48 49 50
000
ASUS43 KDTX 181010
RWRMI
MICHIGAN HOURLY REGIONAL WEATHER ROUNDUP
NATIONAL WEATHER SERVICE DETROIT/PONTIAC MI
600 AM EDT SAT APR 18 2015

NOTE: "FAIR" INDICATES FEW OR NO CLOUDS BELOW 12,000 FEET WITH NO
SIGNIFICANT WEATHER AND/OR OBSTRUCTION TO VISIBILITY.

MIZ047>049-052>055-059>063-066>070-074>076-081>083-181100-
SOUTHEAST LOWER MICHIGAN

CITY           SKY/WX    TMP DP  RH WIND       PRES   REMARKS
ADRIAN         CLOUDY    53  45  74 SW3       30.04R
ALMA           CLEAR     46  41  82 CALM      30.02R
ANN ARBOR        N/A     42  40  92 CALM      30.02S
BAD AXE        CLEAR     44  41  91 CALM      30.00R
DETROIT CITY   PTCLDY    53  42  66 W6        30.01S
DETROIT        PTCLDY    49  42  77 CALM      30.02S
FLINT          PTCLDY    47  40  76 CALM      30.01S
GROSSE ILE     CLEAR     46  45  93 CALM      30.00S
HILLSDALE      MOCLDY    56  42  61 CALM      30.04S
HOWELL         PTCLDY    52  39  61 SW5       30.01F

CITY           SKY/WX    TMP DP  RH WIND       PRES   REMARKS
JACKSON        CLEAR     48  41  76 SW6       30.03S
LAMBERTVILLE   CLEAR     48  43  81 CALM      30.03S
LANSING        PTCLDY    51  41  68 W3        30.02S
LAPEER         NOT AVBL
MASON          MOCLDY    47  41  80 CALM      30.03R
MONROE         CLEAR     46  45  93 CALM      30.01S
PONTIAC        MOCLDY    51  41  68 CALM      30.00F
PORT HOPE        N/A     46  40  79 W6        29.97R
PORT HURON     PTCLDY    45  43  93 CALM      29.99S
TRI CITIES     CLEAR     50  40  68 NW8       30.01R
YPSILANTI      PTCLDY    52  44  74 SW3       30.02S
$$
MIZ043>046-050>051-056>058-064>065-071>073-077>080-181100-
SOUTHWEST LOWER MICHIGAN

CITY           SKY/WX    TMP DP  RH WIND       PRES   REMARKS
BATTLE CREEK   CLEAR     55  42  61 SW5       30.03S
BENTON HARBOR  PTCLDY    58  47  66 SW9       30.02R
BIG RAPIDS     CLEAR     48  38  68 CALM      30.02R
COLDWATER      PTCLDY    49  46  87 CALM      30.03S
HOLLAND        PTCLDY    56  44  64 W6        30.02R
GRAND RAPIDS   MOCLDY    46  41  82 N6        30.02R
KALAMAZOO      MOCLDY    50  44  80 CALM      30.03R
MARSHALL       CLEAR     45  41  86 CALM      30.03R
MUSKEGON       PTCLDY    46  40  79 CALM      30.02S
$$
MIZ016>042-181100-
NORTHERN LOWER MICHIGAN

CITY           SKY/WX    TMP DP  RH WIND       PRES   REMARKS
ALPENA         CLEAR     45  37  73 NW3       30.00R
BEAVER ISLAND  CLEAR     39  32  77 NW5       30.07R
BELLAIRE       CLEAR     35  34  93 CALM      30.06R
CADILLAC       CLEAR     46  37  71 NW9G16    30.04R
CHARLEVOIX     CLEAR     40  33  75 NW6       30.09R
FRANKFORT      SUNNY     48  34  58 N9        30.07R
GAYLORD        CLEAR     47  35  63 W8        30.03R
GRAYLING       CLEAR     35  32  90 CALM      30.04R
HARBOR SPRINGS CLEAR     34  32  93 S5        30.05R
MANISTEE       CLEAR     39  34  81 CALM      30.07R
OSCODA         CLEAR     39  37  92 CALM      29.97R
PELLSTON       CLEAR     43  32  65 NW9       30.05R
TRAVERSE CITY  CLEAR     44  36  73 E6        30.05R
$$
MIZ007>008-015-181100-
EASTERN UPPER MICHIGAN

CITY           SKY/WX    TMP DP  RH WIND       PRES   REMARKS
KINROSS        CLEAR     39  28  65 NW16G24   30.01R
MACKINAC ISLAN CLEAR     42  30  63 N14G23    30.02R
NEWBERRY       CLEAR     37  31  79 N8        30.06R
S. S. MARIE    CLEAR     40  27  59 NW8       30.03R
$$
MIZ004>006-011>014-085-181100-
CENTRAL UPPER MICHIGAN

CITY           SKY/WX    TMP DP  RH WIND       PRES   REMARKS
MANISTIQUE     CLEAR     40  35  85 N12       30.09R
ESCANABA       CLEAR     43  34  70 N12       30.13R
MENOMINEE      CLEAR     46  32  57 N8        30.10R
SAWYER-GWINN   CLEAR     37  32  81 N16G28    30.14R
$$
MIZ001>003-009>011-084-181100-
WESTERN UPPER MICHIGAN

CITY           SKY/WX    TMP DP  RH WIND       PRES   REMARKS
IRON MOUNTAIN  CLEAR     41  33  73 N12       30.13R
HOUGHTON       CLEAR     37  31  78 NE8       30.17R
COPPER HARBOR    N/A     37  32  82 N13       30.21R
IRONWOOD       CLEAR     39  30  70 NE7       30.16R
$$

ABBREVIATIONS USED IN REMARKS
   TC - TEMPERATURE IN CELSIUS
  WCI - WIND CHILL INDEX
   HX - HEAT INDEX
  VSB - VISIBILITY




USA.gov is the U.S. government's official web portal to all federal, state and local government web resources and services.